HYLAS 1

Last updated on Jan. 22, 2021, 6:26 a.m. UTC

1 37237U 10065A   21021.76794568 -.00000353  00000-0  00000-0 0  9994
2 37237   0.6528  95.1046 0002020 202.5601 217.2995  1.00268379 37203
UTC
Height (km)
Latitude
Longitude
Inclination
Orbital Period
UTC large
Height (km)
Speed (km/s)
/
Latitude / Longitude
Inclination (degrees)
Orbital Period (minutes)
Azimuth
Elevation
Range (km)
Doppler Factor
iOS Compass Heading
iOS Angle

Next 30 passes for location: Hong Kong

Rise time Rise Azimuth (degrees) Set time Set Azimuth (degrees) Duration Max altitude (degrees)

No matching passes for this satellites